Theta_e
314 315 317 324 326 324 324 323 324 326 325 322 320 322 322 321 322 325 321 322 322 330 330 330 330 330 330 330 329 329 331 331 331 331 329 329 328 327 325 321 319 320 320 321 320 318 319 320 321
315 315 322 322 324 323 322 323 325 323 322 321 321 321 322 323 322 323 323 321 321 324 331 329 329 330 330 330 330 328 327 327 327 327 326 325 325 325 322 320 321 321 320 321 321 320 320 319 318
314 315 322 323 322 323 322 323 323 322 322 321 322 321 322 322 322 323 321 321 321 319 326 327 328 328 329 329 328 328 327 326 325 325 327 325 322 322 321 321 321 321 323 321 320 316 313 313 312
320 321 320 321 323 322 321 322 322 322 322 320 321 322 321 320 322 320 320 320 322 320 320 322 324 327 329 328 329 327 327 326 326 329 329 327 319 320 319 320 322 322 320 319 315 313 311 307 306
319 320 322 322 322 321 321 321 321 322 322 321 320 322 321 320 318 318 318 319 322 322 320 319 318 319 324 330 330 331 327 326 331 334 332 321 315 317 319 319 318 316 315 313 312 307 304 304 304
321 319 322 323 321 321 321 322 321 322 322 321 320 321 321 319 318 318 317 317 319 323 321 319 317 315 315 317 329 332 328 327 333 334 330 315 313 314 316 315 314 313 312 309 305 304 304 305 305
321 322 322 322 321 321 321 320 321 321 321 321 320 320 320 319 317 317 317 317 317 322 321 321 319 317 316 314 314 319 324 327 331 332 328 315 313 313 313 313 312 310 306 304 304 305 306 306 307
320 321 321 322 321 321 320 320 320 320 320 319 319 320 320 320 318 317 317 317 317 319 320 321 321 320 317 315 315 316 320 325 331 329 322 313 312 312 312 311 308 305 303 303 304 305 306 306 306
319 321 321 322 321 320 319 319 319 318 318 318 318 318 319 318 317 317 316 316 317 318 319 320 320 321 320 317 317 322 326 329 329 326 323 314 311 311 310 308 305 303 303 304 305 305 306 306 306
320 322 321 321 320 319 318 318 318 318 318 318 319 319 318 317 317 316 316 317 316 317 317 318 320 319 321 326 326 320 324 326 327 326 322 314 311 311 309 306 303 303 303 304 305 305 305 306 306
320 321 320 319 319 318 318 318 317 318 319 318 318 318 318 318 317 316 318 319 322 319 317 317 318 319 320 321 321 318 317 318 322 321 318 315 312 311 308 305 303 303 303 304 305 305 305 306 306
320 319 319 319 318 317 318 317 317 317 317 317 317 317 317 317 317 317 317 318 319 321 323 317 316 317 318 319 319 318 315 314 318 319 316 315 312 310 308 304 303 303 304 304 305 305 306 306 306
319 318 317 318 318 318 317 317 317 317 317 317 317 317 317 317 316 316 317 317 317 318 320 318 316 316 317 318 319 318 318 316 315 318 314 315 312 310 308 305 303 303 304 304 305 305 305 305 305
317 316 316 316 316 316 316 317 316 316 316 316 316 316 316 316 316 316 316 316 314 314 315 315 316 315 316 316 317 317 319 318 316 315 314 314 313 310 308 306 303 303 304 304 304 304 304 305 305
315 315 316 316 316 317 315 316 317 316 316 316 315 315 316 316 315 315 315 315 315 314 314 315 315 315 315 315 316 317 317 318 319 317 315 314 313 311 309 307 304 303 303 303 303 303 303 304 304
315 316 317 318 315 315 314 316 317 316 315 315 315 315 315 315 315 315 315 315 314 315 314 314 314 314 314 315 315 316 317 317 318 318 317 315 314 312 310 308 306 303 303 302 302 302 303 303 303
317 317 318 318 317 315 315 316 316 315 315 315 315 316 315 315 315 315 314 314 314 313 313 313 312 312 313 314 315 316 317 318 318 318 317 316 314 313 311 309 307 305 303 302 302 302 302 303 303
319 320 319 318 317 317 316 316 316 316 316 316 316 315 315 315 315 313 312 312 312 312 312 312 312 311 311 311 313 315 316 317 318 318 317 316 315 314 312 309 307 305 303 301 301 301 301 301 302
317 316 317 317 317 317 317 317 316 315 315 316 316 316 315 315 313 311 310 310 310 309 309 309 310 310 310 310 311 311 313 315 315 316 316 315 315 314 312 310 308 306 304 302 301 301 300 300 300
315 316 316 317 317 317 316 315 315 315 316 316 316 315 315 313 312 310 308 309 308 308 309 309 308 308 309 309 310 311 313 314 314 314 314 314 314 314 313 311 309 308 306 303 300 300 300 299 300
316 316 316 316 316 314 315 315 317 318 319 316 313 313 312 310 309 308 308 309 310 309 309 309 308 307 306 307 307 308 309 309 309 310 310 311 312 312 313 312 311 309 307 305 302 300 299 299 299
315 315 314 314 314 315 313 316 317 319 319 314 312 310 309 307 306 305 307 309 308 308 307 307 308 309 308 306 305 305 307 307 306 306 306 307 307 308 310 311 311 310 309 307 304 301 299 298 298
314 312 312 312 313 314 315 316 319 320 317 313 311 309 306 305 304 302 302 303 304 304 304 304 306 307 307 306 305 305 304 304 304 305 305 304 304 304 305 306 308 308 309 308 306 303 300 299 298
311 311 313 314 314 319 319 320 320 317 314 312 309 307 305 304 302 301 301 303 304 304 306 306 304 304 305 305 304 303 302 302 303 303 303 302 302 302 303 303 303 304 305 306 306 304 301 299 299
310 313 321 323 321 322 316 321 318 316 312 311 308 306 304 303 302 300 300 299 300 302 303 303 303 304 304 303 303 302 302 302 302 301 301 301 301 301 302 301 301 302 302 303 303 302 301 300 299
314 316 321 325 323 323 319 320 320 313 309 308 307 305 303 302 300 299 298 297 297 296 296 297 301 303 303 302 301 301 301 302 302 302 301 300 300 299 300 299 300 300 301 300 300 301 300 299 299
315 315 315 321 319 319 317 317 317 310 309 308 307 305 302 300 299 298 297 296 295 295 295 296 297 298 299 300 300 300 299 299 299 300 301 301 301 300 298 298 298 298 298 299 300 299 299 300 299
309 309 315 315 319 319 316 316 317 313 311 309 306 303 301 299 298 297 296 295 294 295 295 295 295 295 294 294 293 295 298 299 298 298 298 299 300 301 301 299 298 297 297 297 297 298 298 297 298
312 311 310 311 315 318 318 316 315 312 310 308 303 300 299 298 297 296 295 294 293 292 291 291 291 291 291 292 292 292 291 290 293 296 296 297 297 297 299 300 299 298 297 296 295 296 296 297 298
313 313 313 314 314 314 315 315 315 307 306 302 301 299 297 295 294 293 293 292 291 291 291 290 290 290 290 289 289 289 288 288 288 288 289 291 294 296 296 296 298 298 297 296 295 295 294 295 295
Wind_Speed
6 6 6 5 6 4 5 3 4 3 2 3 3 6 9 10 8 4 2 3 7 16 19 21 21 21 19 18 17 17 16 14 13 13 11 11 10 9 8 8 8 8 8 6 5 5 5 4 3
3 3 3 6 5 5 6 4 0 5 6 4 5 6 7 7 3 3 3 4 7 14 20 22 22 21 20 19 17 16 16 15 14 13 13 12 12 11 11 10 10 11 11 8 7 7 7 6 6
1 1 5 3 3 5 5 2 3 4 6 5 4 3 7 4 2 1 5 4 8 13 20 21 23 22 21 20 19 18 17 16 15 14 14 15 15 15 14 13 14 13 13 10 9 10 9 8 7
1 2 5 5 6 6 4 7 7 8 0 3 3 8 4 6 1 6 5 5 10 14 18 21 22 24 21 21 20 20 19 18 15 15 16 19 15 14 13 13 13 14 13 11 11 10 9 9 7
2 4 5 5 7 4 5 7 6 6 4 3 4 3 5 8 8 10 10 8 10 15 18 20 21 23 24 21 21 21 20 18 16 17 17 14 12 12 12 12 14 13 12 12 11 9 7 5 4
5 4 5 6 4 4 3 2 4 6 4 3 4 10 6 6 3 5 7 9 11 15 18 21 21 23 24 24 23 23 21 20 21 20 22 14 13 12 13 13 13 12 11 10 10 6 5 4 3
6 5 9 8 10 7 2 1 5 3 5 7 4 6 5 5 6 6 8 8 11 15 18 21 21 23 24 24 26 26 24 23 24 23 24 16 15 14 13 14 12 12 11 10 8 7 6 5 5
4 4 6 5 5 9 2 3 3 6 9 2 3 5 6 5 10 14 12 11 13 15 19 21 22 24 26 26 25 25 26 27 27 27 22 18 16 14 14 14 13 13 12 11 10 8 7 6 5
2 5 8 10 8 4 3 6 4 5 12 13 10 15 13 18 18 17 15 15 17 18 21 22 24 24 25 26 27 27 28 29 29 29 27 22 19 18 17 16 16 15 14 13 11 9 8 7 7
7 8 10 7 10 9 11 10 14 13 16 20 19 21 16 21 20 19 18 18 19 21 22 23 25 25 25 25 25 30 32 32 33 32 31 27 22 20 19 19 18 18 16 15 14 12 10 9 8
6 10 13 14 15 17 15 17 18 16 18 21 19 12 16 16 20 23 21 20 19 20 23 25 26 27 28 28 30 31 34 35 35 34 33 29 25 24 23 22 21 21 19 17 15 13 12 10 9
10 16 19 20 13 9 16 22 17 17 30 26 27 26 24 22 23 21 22 19 19 20 22 25 27 29 30 31 34 32 33 35 36 36 33 31 30 28 25 25 24 24 22 21 19 17 15 13 11
15 17 20 19 18 19 21 26 22 27 29 32 29 26 24 23 23 20 21 20 20 23 24 27 28 30 31 33 34 33 33 34 35 35 33 33 32 30 28 27 27 27 25 25 22 20 18 16 14
13 14 21 25 24 20 19 24 19 35 23 24 21 22 21 21 21 17 17 17 19 22 25 26 29 29 32 34 35 35 34 35 33 37 35 35 34 32 31 30 29 29 28 26 24 22 20 19 16
12 13 17 26 26 14 7 15 14 23 15 19 21 21 22 20 20 17 17 19 22 23 20 24 26 28 30 33 35 36 37 35 36 36 35 37 35 35 34 33 32 31 30 28 27 25 23 21 19
10 15 15 12 2 3 8 16 16 11 12 17 24 31 30 29 27 24 24 22 19 19 22 23 23 26 29 31 34 36 38 39 38 37 37 38 36 37 37 36 34 33 33 31 30 28 25 23 21
14 16 19 15 14 2 11 13 12 26 27 29 37 34 30 29 25 20 17 16 15 15 16 20 24 28 30 32 34 35 35 37 38 37 38 38 38 38 40 39 37 36 36 35 34 32 29 27 25
18 20 20 15 14 15 18 23 20 26 31 33 33 29 26 21 14 12 11 8 6 6 9 13 17 20 23 27 30 33 32 35 35 36 37 37 39 39 40 41 40 39 38 37 36 35 32 31 27
22 22 24 22 20 23 24 24 20 24 33 33 27 17 8 7 10 16 18 19 15 10 6 2 8 13 16 19 24 28 32 33 33 36 36 36 38 39 40 43 43 43 41 40 38 37 35 32 30
18 22 23 21 18 16 20 23 25 23 24 19 15 12 2 12 18 18 18 20 23 20 17 12 5 3 7 12 15 17 17 22 25 28 33 38 40 41 41 42 44 46 43 42 41 40 40 36 34
20 18 21 24 18 18 18 19 10 10 22 5 11 14 18 18 18 18 20 24 24 25 24 20 15 8 2 5 10 12 15 18 17 21 27 33 36 40 43 43 44 47 45 45 44 44 43 41 39
18 16 14 15 12 9 7 9 16 18 13 15 25 19 17 18 19 19 21 23 23 22 20 20 18 16 13 6 3 6 8 11 10 15 18 24 28 33 38 42 45 48 48 47 48 47 46 44 44
13 6 10 10 11 16 13 9 6 13 5 14 17 16 16 18 18 19 20 20 21 22 23 21 20 19 17 14 9 6 7 8 10 10 16 21 22 24 26 33 40 47 51 50 50 50 50 50 48
8 9 14 16 8 8 12 11 5 5 10 9 16 15 14 15 17 17 17 20 22 23 23 24 21 22 21 18 15 11 7 8 8 8 16 17 20 23 23 25 31 38 47 51 52 52 53 52 52
7 8 6 5 6 7 4 7 9 8 8 10 11 12 12 13 14 16 18 18 18 19 19 20 21 24 24 22 19 17 15 12 11 9 13 15 16 19 20 21 25 29 35 44 50 52 54 54 54
7 4 4 6 10 15 14 8 8 10 14 14 12 12 11 12 11 11 12 11 13 16 16 16 21 22 21 21 22 21 20 19 16 14 14 14 14 18 21 22 22 25 28 33 41 50 53 54 55
3 6 5 2 3 5 9 17 16 13 11 12 11 8 8 7 8 9 9 12 13 14 19 21 22 22 20 19 18 19 20 21 20 19 19 17 18 18 20 22 25 24 26 29 33 41 48 54 56
3 4 3 4 5 11 14 19 14 13 12 9 8 6 7 9 11 12 14 15 16 17 17 18 21 22 22 22 19 16 17 19 20 22 22 21 21 21 21 22 24 25 27 28 32 36 40 46 53
6 6 5 5 8 11 15 13 9 10 8 4 5 7 9 10 11 11 10 11 12 12 14 15 18 20 23 27 27 27 26 24 20 18 19 23 24 24 23 21 22 25 28 28 31 35 37 41 45
16 18 17 12 13 10 14 18 8 13 5 4 3 4 3 4 7 9 11 10 13 15 18 21 22 24 26 27 27 26 26 26 26 27 26 23 22 23 26 27 26 23 24 27 31 34 37 40 43
Wind_Direction
295 302 319 299 262 228 272 84 340 324 295 22 313 303 335 310 312 3 23 250 193 193 198 198 200 199 196 196 198 199 203 208 209 215 218 211 215 222 228 240 253 261 265 273 290 294 276 281 287
297 300 288 282 261 270 72 68 40 27 1 317 290 276 277 300 312 279 322 256 209 195 197 201 203 205 203 203 202 206 210 209 214 220 230 232 230 230 237 244 250 255 261 262 279 279 277 277 272
354 209 269 276 288 340 356 68 5 325 315 273 289 264 304 313 298 272 274 269 213 200 197 205 208 209 209 210 209 210 214 221 225 234 243 244 236 234 233 237 242 248 257 271 277 277 277 274 270
285 236 231 257 299 321 285 320 336 307 156 223 285 274 234 257 261 250 280 267 211 207 205 213 210 212 213 215 216 217 216 219 227 235 242 250 235 226 231 228 234 242 256 267 271 271 273 269 266
273 247 262 252 285 281 294 287 303 283 290 232 223 274 277 287 277 274 272 263 219 212 209 217 213 215 216 215 217 216 215 217 219 235 239 241 228 224 226 233 243 254 261 263 264 266 265 266 265
243 285 251 272 331 309 301 342 263 265 270 220 247 269 283 260 291 316 296 254 230 218 218 217 215 216 219 220 216 217 218 214 217 228 241 236 233 230 232 242 248 251 254 258 261 251 245 251 260
282 269 280 295 288 288 257 176 234 298 275 266 257 273 279 252 257 291 296 263 239 221 226 220 218 217 219 221 223 223 220 215 221 224 237 243 242 239 237 239 239 241 244 243 237 239 241 247 256
270 268 272 250 286 287 183 212 264 273 295 273 246 260 271 204 275 292 278 261 244 231 232 225 222 222 220 219 221 223 219 218 221 228 238 246 244 242 242 242 241 238 234 227 226 231 238 247 262
239 254 264 273 266 281 170 266 190 272 276 267 252 267 300 284 288 284 273 259 250 238 233 228 226 224 223 222 221 218 218 220 225 232 238 247 239 236 235 233 235 232 226 226 228 230 235 240 240
226 247 274 279 284 279 295 272 288 284 273 273 268 265 271 279 280 272 268 261 255 248 244 234 231 229 224 223 223 222 220 222 227 233 238 242 233 232 231 231 229 225 222 223 225 226 229 234 236
227 251 275 290 282 288 283 285 279 261 271 272 282 288 286 281 269 269 265 256 248 257 246 244 237 233 229 223 229 229 226 227 229 234 238 238 232 229 228 230 225 225 223 224 227 226 232 236 241
264 256 271 283 289 283 273 287 277 265 266 281 283 286 285 277 268 266 266 259 252 243 244 247 239 236 234 230 234 234 233 231 229 235 237 233 229 229 228 227 224 224 223 225 226 226 231 234 236
248 273 278 281 278 270 278 271 274 273 278 282 283 282 277 270 270 264 262 264 257 247 239 243 244 239 237 236 234 237 234 234 232 234 238 230 232 232 231 229 229 226 225 224 225 226 227 229 231
303 290 282 278 274 268 268 274 282 275 276 284 285 285 281 274 270 266 255 267 279 265 251 246 245 244 239 239 239 240 238 239 236 236 239 236 235 234 234 233 231 229 228 228 227 227 228 228 230
279 292 294 282 271 256 256 271 244 274 276 277 287 289 290 283 278 265 271 268 270 274 268 254 250 248 244 244 243 240 242 240 241 240 238 240 235 235 236 235 234 233 232 230 229 229 229 230 230
272 271 275 286 63 185 191 276 292 321 313 285 281 287 287 284 281 279 281 275 270 263 259 258 258 254 251 247 248 244 241 243 240 243 241 241 238 235 236 236 236 235 234 232 231 231 230 232 234
247 269 279 294 302 31 212 281 293 305 295 286 281 286 291 292 293 291 286 279 268 260 254 258 255 253 251 248 243 245 243 241 243 241 242 242 242 237 237 238 238 238 237 234 232 232 232 232 232
282 289 298 284 286 279 273 276 293 295 294 280 281 290 293 296 318 336 331 313 288 266 249 245 247 251 253 249 245 242 243 244 241 242 242 243 244 240 238 239 239 239 238 235 232 233 230 230 231
280 286 285 288 292 290 288 294 297 287 280 283 288 305 304 40 45 52 42 40 51 59 54 287 256 258 249 247 243 244 244 247 245 244 243 242 245 244 240 240 240 240 240 239 237 234 231 228 228
279 280 283 285 292 306 298 291 291 286 276 284 294 310 86 102 73 56 47 49 46 50 61 62 50 297 272 244 250 245 247 247 249 250 247 245 244 245 243 241 242 244 242 239 237 235 232 227 228
267 276 287 296 311 299 292 286 256 278 298 18 39 90 90 76 71 56 47 49 49 42 41 43 44 44 3 268 256 253 242 249 250 257 252 250 250 250 248 245 243 245 245 245 243 238 235 233 231
282 298 313 307 311 295 19 292 297 274 266 80 96 75 79 73 66 55 55 52 50 52 52 47 43 42 35 17 305 263 259 273 280 266 269 260 259 255 253 251 246 246 246 245 246 244 241 236 237
282 338 311 298 279 285 271 251 291 285 183 114 92 75 65 60 58 59 53 51 49 46 45 46 44 42 41 35 23 346 319 291 264 262 273 276 274 271 263 258 254 249 247 245 246 245 241 239 239
314 287 276 262 270 263 277 252 282 48 108 115 98 83 64 50 50 49 49 52 50 47 42 36 32 41 39 35 26 16 353 328 308 276 277 278 283 283 279 272 264 257 253 250 247 247 245 242 240
222 272 307 281 212 269 60 333 264 343 84 120 111 91 75 67 52 41 36 32 32 36 38 38 32 33 26 23 27 23 6 356 347 328 304 293 290 292 293 285 278 272 265 257 252 249 247 245 242
193 253 221 278 288 294 319 262 252 128 119 114 112 100 80 60 47 40 32 27 30 23 24 27 27 28 23 15 13 11 10 12 1 340 315 301 294 292 295 293 285 281 274 267 260 253 251 250 247
161 223 276 216 220 269 250 267 266 140 142 135 120 97 71 61 48 45 40 35 32 26 20 17 16 19 17 11 6 3 359 1 1 358 351 336 319 303 288 286 287 285 279 272 266 260 255 252 250
244 359 203 168 256 260 262 279 270 208 178 154 121 72 33 22 25 23 22 20 17 16 14 9 10 8 7 11 13 6 2 353 348 347 345 344 343 335 318 302 291 285 283 279 270 263 259 255 253
232 248 228 289 247 259 271 269 304 67 116 130 56 29 12 10 9 10 9 17 18 14 11 9 8 6 2 360 359 0 1 358 352 340 334 335 336 336 334 328 309 296 287 280 276 270 263 259 256
274 268 266 255 250 227 251 251 283 25 89 58 2 348 5 18 15 12 10 6 6 3 359 359 355 354 355 353 351 351 349 349 349 347 346 341 329 324 326 326 324 317 299 288 277 272 269 263 258